Regional Weather Roundup
Issued by NWS Cleveland, OH

Home | Current Version | Previous Version | Graphics & Text | Print | Product List | Glossary On
Versions: 1 2 3 4 5 6 7 8 9 10 11 12 13 14 15 16 17 18 19 20 21 22 23 24 25 26 27 28 29 30 31 32 33 34 35 36 37 38 39 40 41 42 43 44 45 46 47 48 49 50
000
ASUS41 KCLE 302000
RWRCLE
OHIO REGIONAL WEATHER ROUNDUP
NATIONAL WEATHER SERVICE WILMINGTON, OH
400 PM EDT THU JUL 30 2015

NOTE: "FAIR" INDICATES FEW OR NO CLOUDS BELOW 12,000 FEET WITH NO
SIGNIFICANT WEATHER AND/OR OBSTRUCTIONS TO VISIBILITY.

OHZ001>008-015>018-024>027-034-035-043-044-302100-
   NORTHWEST OHIO

CITY           SKY/WX    TMP DP  RH WIND       PRES   REMARKS
DEFIANCE       MOSUNNY   86  55  34 NW16      30.01F
FINDLAY        MOSUNNY   85  56  37 W16G24    30.00S
TOLEDO EXPRESS MOSUNNY   83  57  41 W18       29.98F
TOLEDO EXEC    MOSUNNY   85  56  37 W16G23    29.98F
LIMA           SUNNY     83  56  39 W10       30.03F
$$

OHZ009>014-019>023-028>033-038-089-302100-
   NORTHEAST OHIO

CITY           SKY/WX    TMP DP  RH WIND       PRES   REMARKS
CLE-HOPKINS    MOSUNNY   84  57  39 W16       29.99S
CLE-LAKEFRONT  SUNNY     83  60  45 W15       29.95F
CUY CO. ARPT   SUNNY     84  59  42 W21       29.98S
LORAIN-ELYRIA  MOSUNNY   82  59  45 NW7       29.98F
ASHTABULA      SUNNY     83  53  35 W10G22    29.96F
AKRON-CANTON   MOSUNNY   84  57  39 W14G22    29.98F
WOOSTER        NOT AVBL
MANSFIELD      SUNNY     83  57  41 W12       30.02S
YOUNGSTOWN     PTSUNNY   82  57  42 W8G18     29.96F
$$

OHZ042-051>053-060>062-070>072-077>081-302100-
  SOUTHWEST OHIO

CITY           SKY/WX    TMP DP  RH WIND       PRES   REMARKS
CINC-COVINGTON MOSUNNY   84  48  28 NW10G17   30.08S
CINC-LUNKEN    SUNNY     84  59  42 W9        30.05F
HAMILTON       MOSUNNY   85  59  41 W7        30.07S
DAYTON         NOT AVBL
WRIGHT-PAT AFB NOT AVBL
DAYTON GENERAL SUNNY     84  56  38 W9        30.06F
WILMINGTON     SUNNY     83  56  39 NW10      30.05F
$$

OHZ036-037-039>041-045>050-054>059-063>069-073>076-082>088-302100-
  CENTRAL AND SOUTHEAST OHIO

CITY           SKY/WX    TMP DP  RH WIND       PRES   REMARKS
COLUMBUS       MOSUNNY   85  58  39 W17G23    30.01F
OSU AIRPORT    SUNNY     83  61  47 W14       30.02F
BOLTON FIELD   SUNNY     82  61  47 NW8G16    30.04S
RICKENBACK AFB NOT AVBL
NEWARK         SUNNY     86  57  37 NW12G21   30.01S
MARION         SUNNY     84  56  38 W12       30.02F
LANCASTER      SUNNY     83  60  45 W12G18    30.03S
ZANESVILLE     SUNNY     84  56  38 W8G18     30.00F
NEW PHILLY     SUNNY     83  59  44 NW12      29.99F
$$



USA.gov is the U.S. government's official web portal to all federal, state and local government web resources and services.